sat.trackr.live / text

‹ back to catalog

ONEWEB-0568

NORAD 56062 · 2023-043S

PAYLOAD ACTIVE UNKNOWN

§ Identity

Operator
Country
UK
Launch date
2023-03-26
Launch site
SRILR
Launch vehicle
Mass (kg)
RCS (m²)

Purposes: comms

External: N2YO · Heavens-Above · Gunter

§ Orbital elements

Epoch: 2026-09-20T03:49:08.266080Z

Period
109.37 min
Inclination
87.9159°
Eccentricity
0.0001922
Mean motion
13.16595802 rev/d
Perigee alt
1,196.3 km
Apogee alt
1,199.2 km
Semi-major
7,575.9 km
B*
3.1486e-4
RAAN
209.9164°
Arg perigee
89.4722°
Mean anomaly
270.6629°
Rev number
17,147

§ Raw data

ONEWEB-05681 56062U 23043S   26263.15912345  .00000133  00000+0  31486-3 0  99912 56062  87.9159 209.9164 0001922  89.4722 270.6629 13.16595802171479

JSON: /api/v1/satellites/56062 · /tle

For live sub-satellite position, see the globe view (requires WebGL).

§ Visibility from observer

Set your observer location to see the next 7 days of passes ≥ 10°. The values pass through the URL so the page stays shareable.

No JS? Fill the form by hand. The geolocation button needs JavaScript.